DELTA 1 DEB, 21542

Orbit data source: Space-Track

DELTA 1 DEB, 21542 is space debris in SSO originally from a launch on Thu, 12 Jun 1975 UTC launched from the Air Force Western Test Range (AFWTR). Debris objects in space refer to the collection of defunct objects orbiting the Earth. Examples of debris include non-operational satellites, rocket bodies, and fragments generated from explosions, collisions, or faulty payload assembly.

Loading next visibility...
Identifier
21542, 1975-052GW
Orbit
SSO
Country
Flag of USUS
Related business
Manufacturer
Unknown
Mission
Spacecraft
Bus & Motor
Unknown
Mass
Unknown
Launch date (UTC)
1975-06-12 (50 years ago)
Launch vehicle
Unknown
Launch site
Air Force Western Test Range (AFWTR)
Object type
Payload
Rocket body
Debris
Shape & HBR
Unknown shape, 0.1 m
Radar Cross Section
Small (<0.1 m²)

Expand to show TLE details & history
Last TLE update: 3 days ago

TLE from 3 days ago
0 DELTA 1 DEB
1 21542U 75052GW  25304.61975358  .00000226  00000-0  50957-3 0  9990
2 21542 100.3027 178.2128 0049050 203.2617 186.3123 13.38427730682498
Epoch: 2025-10-31T14:52Z
TLE epoch observation values (Epoch: 2025-10-31T14:52:26.709Z)
Latitude
29.03728°
Longitude
-90.82248°
Altitude
1,155.14 km
Speed
7.26 km/s
True Right ascension
11h 29m 48s
True Declination
28° 53' 57"
Sunlit
Object was in daylight at epoch
Visualization orbit readout
Latitude
Unknown
Longitude
Unknown
Altitude
Unknown
Speed
Unknown
Apparent Right ascension
Unknown
Apparent Declination
Unknown
Sunlit
N/A
Visualization observer readout
Local Sidereal Time
02:44:00
Azimuth
Unknown
Elevation
Unknown
Doppler factor
Unknown
Orbital elements
Apogee altitude
1,149.232 km
Perigee altitude
1,075.749 km
Semi-major axis
7,490.627 km
Eccentricity
0.00491
Inclination
100.3027°
RAAN
178.2128°
Arg. of periapsis
203.2617°
True anomaly
186.25088°
Mean anomaly
186.3123°
Eccentric anomaly
186.28155°
Mean motion
3.34785 °/min
Orbital period
107.53 mins
BSTAR
0.00050957
Loading maneuver chart data...
Computing Atmospheric mass density...
Loading historical data...
Loading historical data...
Loading historical data...
Loading historical data...
Loading historical data...
Loading historical data...
Loading historical data...

Documentation

Showing up to 5 results
|